Grand Junction, CO

6:48 AM MST on November 14, 2019 (GMT -0700)
Walker

Weather History for KGJT - September, 2019

Change the Weather History Date:

Friday, September 20, 2019

  Actual Average Record
Temperature  
Mean Temperature 65 °F 64 °F  
Max Temperature 82 °F 78 °F 91 °F (1935)
Min Temperature 47 °F 50 °F 29 °F (1978)
Degree Days  
Heating Degree Days 0 3  
Month to date heating degree days 10 27  
Since 1 July heating degree days 10 30  
Cooling Degree Days 0 2  
Month to date cooling degree days 143 90  
Year to date cooling degree days 1264 1109  
Growing Degree Days 18 (Base 50)    
Moisture  
Dew Point 29 °F    
Average Humidity 25    
Maximum Humidity 40    
Minimum Humidity 9    
Precipitation  
Precipitation 0.00 in 0.04 in 0.68 in (1969)
Month to date precipitation 0.24 0.78  
Year to date precipitation 7.10 6.63  
Snow  
Snow 0.00 in 0.00 in 0.00 in (2002)
Month to date snowfall 0.0 0.0  
Since 1 July snowfall 0.0 0.0  
Since 1 September snowfall 0.0 0.0  
Snow Depth 0.00 in    
Sea Level Pressure  
Sea Level Pressure 29.69 in    
Wind  
Wind Speed 11 mph (SSW)    
Max Wind Speed 30 mph    
Max Gust Speed 40 mph    
Visibility 10 miles    
Events      
T = Trace of Precipitation, MM = Missing Value Source: NWS Daily Summary

Daily Weather History Graph

Daily Weather History Graph

Search for Another Location

Airport or City:

Astronomy

Sep. 20, 2019 Rise Set
Actual Time 6:59 AM MDT 7:14 PM MDT
Civil Twilight 6:33 AM MDT 7:41 PM MDT
Nautical Twilight 6:01 AM MDT 8:12 PM MDT
Astronomical Twilight 5:29 AM MDT 8:44 PM MDT
Moon 11:09 PM MDT (9/20) 1:05 PM MDT (9/20)
Length of Visible Light 13h 08m
Length of Day
12h 14m
Waning Gibbous, 64% of the Moon is Illuminated
Sep 20
Waning Gibbous
Sep 21
Last Quarter
Sep 28
New
Oct 5
First Quarter
Oct 13
Full

Hourly Weather History & Observations

Time (MDT) Temp. Dew Point Humidity Pressure Visibility Wind Dir Wind Speed Gust Speed Precip Events Conditions
12:53 AM 68.0 °F 39.9 °F 36% 29.61 in 10.0 mi ESE 8.1 mph - N/A   Clear
1:53 AM 68.0 °F 39.9 °F 36% 29.61 in 10.0 mi ESE 12.7 mph - N/A   Clear
2:53 AM 66.0 °F 39.9 °F 38% 29.61 in 10.0 mi SE 11.5 mph - N/A   Clear
3:53 AM 64.9 °F 39.0 °F 39% 29.61 in 10.0 mi ESE 9.2 mph - N/A   Clear
4:53 AM 66.9 °F 39.9 °F 37% 29.61 in 10.0 mi SSE 15.0 mph - N/A   Clear
5:53 AM 66.9 °F 39.0 °F 36% 29.62 in 10.0 mi South 10.4 mph 20.7 mph N/A   Clear
6:53 AM 66.9 °F 39.0 °F 36% 29.64 in 10.0 mi SSE 11.5 mph - N/A   Clear
7:53 AM 68.0 °F 39.0 °F 35% 29.65 in 10.0 mi South 9.2 mph - N/A   Clear
8:53 AM 72.0 °F 39.0 °F 30% 29.67 in 10.0 mi South 10.4 mph - N/A   Clear
9:53 AM 73.9 °F 39.0 °F 28% 29.67 in 10.0 mi South 11.5 mph - N/A   Partly Cloudy
10:53 AM 75.9 °F 35.1 °F 23% 29.64 in 10.0 mi SSW 10.4 mph - N/A   Scattered Clouds
11:53 AM 75.9 °F 35.1 °F 23% 29.64 in 10.0 mi SSW 12.7 mph 23.0 mph N/A   Overcast
12:53 PM 79.0 °F 28.9 °F 16% 29.65 in 10.0 mi SSW 27.6 mph 38.0 mph N/A   Partly Cloudy
1:53 PM 79.0 °F 26.1 °F 14% 29.64 in 10.0 mi SSW 11.5 mph 25.3 mph N/A   Partly Cloudy
2:37 PM 80.1 °F 24.1 °F 13% 29.84 in 10.0 mi WSW 12.7 mph 25.3 mph N/A   Scattered Clouds
2:53 PM 81.0 °F 25.0 °F 13% 29.63 in 10.0 mi West 16.1 mph 26.5 mph N/A   Partly Cloudy
3:53 PM 79.0 °F 19.0 °F 11% 29.65 in 10.0 mi WSW 21.9 mph 28.8 mph N/A   Clear
4:53 PM 77.0 °F 16.0 °F 10% 29.67 in 10.0 mi West 18.4 mph 31.1 mph N/A   Clear
5:53 PM 73.9 °F 10.0 °F 9% 29.69 in 10.0 mi West 19.6 mph - N/A   Clear
6:53 PM 70.0 °F 18.0 °F 14% 29.72 in 10.0 mi WNW 9.2 mph - N/A   Clear
7:53 PM 63.0 °F 17.1 °F 17% 29.75 in 10.0 mi NNW 6.9 mph - N/A   Clear
8:53 PM 60.1 °F 17.1 °F 19% 29.77 in 10.0 mi NNE 6.9 mph - N/A   Clear
9:53 PM 54.0 °F 15.1 °F 22% 29.81 in 10.0 mi Calm Calm - N/A   Clear
10:53 PM 55.0 °F 25.0 °F 31% 29.83 in 10.0 mi North 4.6 mph - N/A   Clear
11:53 PM 55.9 °F 28.0 °F 34% 29.86 in 10.0 mi Calm Calm - N/A   Clear